When you browse on this site, cookies collect data to enhance your experience and personalize the content and advertising you see.
Visit our Privacy Policy to learn more. By continuing to use the site, you agree to this use of cookies and data.
  • en Suisse
  • Liste des pays
  • À 7 jours
  • Température de l'eau
  • Carte météo
  • Widgets météo
  • user-avatar
    Se connecter

    Météo par heure à Carcassonne

    Ce jour, 13 Novembre, Mercredi

    Heure Température Précipitation Vent Pression Humidité
    00:00 +9°C° 0.1 mm 3 m/s 742 mmHg 90%
    01:00 +9°C° 0 mm 3 m/s 742 mmHg 91%
    02:00 +8°C° 0 mm 2 m/s 742 mmHg 92%
    03:00 +9°C° 0 mm 1 m/s 742 mmHg 93%
    04:00 +9°C° 0 mm 1 m/s 742 mmHg 93%
    05:00 +9°C° 0 mm 1 m/s 742 mmHg 93%
    06:00 +9°C° 0 mm 1 m/s 742 mmHg 93%
    07:00 +8°C° 0 mm 2 m/s 742 mmHg 89%
    08:00 +8°C° 0 mm 3 m/s 743 mmHg 85%
    09:00 +8°C° 0 mm 4 m/s 743 mmHg 80%
    10:00 +8°C° 0 mm 5 m/s 743 mmHg 76%
    11:00 +9°C° 0 mm 6 m/s 743 mmHg 72%
    12:00 +9°C° 0 mm 7 m/s 743 mmHg 68%
    13:00 +9°C° 0 mm 7 m/s 743 mmHg 68%
    14:00 +9°C° 0 mm 7 m/s 743 mmHg 67%
    15:00 +9°C° 0 mm 8 m/s 743 mmHg 67%
    16:00 +8°C° 0 mm 6 m/s 744 mmHg 70%
    17:00 +7°C° 0 mm 5 m/s 744 mmHg 74%
    18:00 +6°C° 0 mm 4 m/s 744 mmHg 77%
    19:00 +7°C° 0 mm 3 m/s 744 mmHg 78%
    20:00 +7°C° 0 mm 2 m/s 744 mmHg 80%
    21:00 +7°C° 0 mm 1 m/s 744 mmHg 81%
    22:00 +7°C° 0 mm 1 m/s 743 mmHg 82%
    23:00 +7°C° 0 mm 1 m/s 743 mmHg 82%

    Demain, 14 Novembre, Jeudi

    Heure Température Précipitation Vent Pression Humidité
    00:00 +7°C° 0 mm 1 m/s 742 mmHg 83%
    01:00 +6°C° 0 mm 2 m/s 741 mmHg 82%
    02:00 +6°C° 0 mm 2 m/s 741 mmHg 81%
    03:00 +6°C° 0 mm 2 m/s 740 mmHg 81%
    04:00 +6°C° 0.3 mm 2 m/s 740 mmHg 84%
    05:00 +6°C° 0.3 mm 2 m/s 740 mmHg 87%
    06:00 +6°C° 0.3 mm 2 m/s 739 mmHg 90%
    07:00 +6°C° 2 mm 2 m/s 739 mmHg 91%
    08:00 +5°C° 2 mm 2 m/s 739 mmHg 93%
    09:00 +4°C° 2 mm 3 m/s 739 mmHg 94%
    10:00 +5°C° 0.8 mm 2 m/s 739 mmHg 93%
    11:00 +6°C° 0.8 mm 1 m/s 738 mmHg 93%
    12:00 +6°C° 0.8 mm 1 m/s 738 mmHg 93%
    13:00 +6°C° 0.2 mm 1 m/s 738 mmHg 91%
    14:00 +7°C° 0.2 mm 1 m/s 737 mmHg 90%
    15:00 +6°C° 0.2 mm 2 m/s 737 mmHg 89%
    16:00 +6°C° 0.1 mm 2 m/s 737 mmHg 90%
    17:00 +5°C° 0.1 mm 2 m/s 737 mmHg 91%
    18:00 +5°C° 0.1 mm 2 m/s 738 mmHg 92%
    19:00 +4°C° 0.1 mm 3 m/s 738 mmHg 93%
    20:00 +4°C° 0.1 mm 3 m/s 738 mmHg 93%
    21:00 +4°C° 0.1 mm 3 m/s 739 mmHg 93%
    22:00 +4°C° 0 mm 3 m/s 739 mmHg 92%
    23:00 +4°C° 0 mm 2 m/s 739 mmHg 92%

    Après-demain, 15 Novembre, Vendredi

    Heure Température Précipitation Vent Pression Humidité
    00:00 +4°C° 0 mm 2 m/s 739 mmHg 91%
    01:00 +4°C° 0 mm 1 m/s 739 mmHg 90%
    02:00 +4°C° 0 mm 1 m/s 740 mmHg 88%
    03:00 +4°C° 0 mm 1 m/s 740 mmHg 87%
    04:00 +4°C° 0 mm 1 m/s 740 mmHg 86%
    05:00 +3°C° 0 mm 1 m/s 740 mmHg 85%
    06:00 +3°C° 0 mm 1 m/s 740 mmHg 84%
    07:00 +3°C° 0 mm 0 m/s 741 mmHg 79%
    08:00 +5°C° 0 mm 0 m/s 741 mmHg 76%
    09:00 +6°C° 0 mm 0 m/s 741 mmHg 72%
    10:00 +8°C° 0 mm 1 m/s 741 mmHg 70%
    11:00 +9°C° 0 mm 1 m/s 741 mmHg 67%
    12:00 +9°C° 0 mm 2 m/s 741 mmHg 65%
    13:00 +9°C° 0 mm 2 m/s 740 mmHg 66%
    14:00 +9°C° 0 mm 2 m/s 740 mmHg 68%
    15:00 +9°C° 0 mm 2 m/s 740 mmHg 69%
    16:00 +7°C° 0 mm 2 m/s 740 mmHg 75%
    17:00 +7°C° 0 mm 1 m/s 741 mmHg 80%
    18:00 +6°C° 0 mm 1 m/s 741 mmHg 85%
    19:00 +6°C° 0 mm 1 m/s 742 mmHg 86%
    20:00 +6°C° 0 mm 1 m/s 742 mmHg 87%
    21:00 +6°C° 0 mm 1 m/s 743 mmHg 87%
    22:00 +5°C° 0.2 mm 2 m/s 743 mmHg 88%
    23:00 +5°C° 0.2 mm 2 m/s 744 mmHg 88%

    16 Novembre, Samedi

    Heure Température Précipitation Vent Pression Humidité
    00:00 +5°C° 0.2 mm 2 m/s 744 mmHg 89%
    01:00 +4°C° 0 mm 3 m/s 744 mmHg 89%
    02:00 +4°C° 0 mm 3 m/s 745 mmHg 89%
    03:00 +4°C° 0 mm 3 m/s 745 mmHg 89%
    04:00 +3°C° 0 mm 3 m/s 745 mmHg 89%
    05:00 +3°C° 0 mm 3 m/s 746 mmHg 90%
    06:00 +3°C° 0 mm 4 m/s 747 mmHg 90%
    07:00 +3°C° 0 mm 4 m/s 747 mmHg 85%
    08:00 +4°C° 0 mm 4 m/s 748 mmHg 81%
    09:00 +5°C° 0 mm 4 m/s 749 mmHg 76%
    10:00 +6°C° 0 mm 4 m/s 748 mmHg 72%
    11:00 +7°C° 0 mm 5 m/s 748 mmHg 68%
    12:00 +7°C° 0 mm 5 m/s 748 mmHg 65%
    13:00 +7°C° 0 mm 5 m/s 748 mmHg 65%
    14:00 +7°C° 0 mm 4 m/s 748 mmHg 65%
    15:00 +7°C° 0 mm 4 m/s 748 mmHg 66%
    16:00 +7°C° 0 mm 3 m/s 748 mmHg 71%
    17:00 +5°C° 0 mm 3 m/s 748 mmHg 77%
    18:00 +4°C° 0 mm 2 m/s 749 mmHg 83%
    19:00 +4°C° 0 mm 2 m/s 749 mmHg 83%
    20:00 +4°C° 0 mm 2 m/s 749 mmHg 82%
    21:00 +4°C° 0 mm 2 m/s 749 mmHg 82%
    22:00 +4°C° 0 mm 2 m/s 748 mmHg 82%
    23:00 +3°C° 0 mm 2 m/s 747 mmHg 81%

    17 Novembre, Dimanche

    Heure Température Précipitation Vent Pression Humidité
    00:00 +3°C° 0 mm 2 m/s 747 mmHg 81%
    01:00 +3°C° 0 mm 2 m/s 746 mmHg 80%
    02:00 +3°C° 0 mm 2 m/s 746 mmHg 79%
    03:00 +3°C° 0 mm 2 m/s 745 mmHg 78%
    04:00 +3°C° 0 mm 2 m/s 745 mmHg 78%
    05:00 +3°C° 0 mm 2 m/s 744 mmHg 79%
    06:00 +3°C° 0 mm 2 m/s 744 mmHg 79%
    07:00 +4°C° 0 mm 2 m/s 744 mmHg 75%
    08:00 +5°C° 0 mm 2 m/s 744 mmHg 71%
    09:00 +7°C° 0 mm 3 m/s 744 mmHg 67%
    10:00 +8°C° 0 mm 3 m/s 743 mmHg 63%
    11:00 +8°C° 0 mm 4 m/s 743 mmHg 59%
    12:00 +11°C° 0 mm 4 m/s 742 mmHg 55%
    13:00 +10°C° 0 mm 4 m/s 742 mmHg 57%
    14:00 +10°C° 0 mm 4 m/s 742 mmHg 59%
    15:00 +10°C° 0 mm 4 m/s 741 mmHg 61%
    16:00 +9°C° 0 mm 3 m/s 742 mmHg 67%
    17:00 +7°C° 0 mm 2 m/s 742 mmHg 73%
    18:00 +7°C° 0 mm 1 m/s 742 mmHg 79%
    19:00 +7°C° 0 mm 1 m/s 743 mmHg 79%
    20:00 +7°C° 0 mm 1 m/s 743 mmHg 79%
    21:00 +7°C° 0 mm 1 m/s 743 mmHg 78%
    22:00 +7°C° 0 mm 1 m/s 743 mmHg 80%
    23:00 +7°C° 0 mm 1 m/s 743 mmHg 82%

    18 Novembre, Lundi

    Heure Température Précipitation Vent Pression Humidité
    00:00 +7°C° 0 mm 1 m/s 743 mmHg 84%
    01:00 +7°C° 0 mm 1 m/s 743 mmHg 84%
    02:00 +7°C° 0 mm 1 m/s 743 mmHg 85%
    03:00 +7°C° 0 mm 1 m/s 743 mmHg 86%
    04:00 +7°C° 0.1 mm 1 m/s 743 mmHg 87%
    05:00 +7°C° 0.1 mm 1 m/s 744 mmHg 89%
    06:00 +7°C° 0.1 mm 1 m/s 744 mmHg 90%
    07:00 +7°C° 0.2 mm 2 m/s 744 mmHg 89%
    08:00 +7°C° 0.2 mm 2 m/s 745 mmHg 89%
    09:00 +8°C° 0.2 mm 3 m/s 745 mmHg 88%
    10:00 +7°C° 0 mm 4 m/s 745 mmHg 85%
    11:00 +8°C° 0 mm 4 m/s 745 mmHg 83%
    12:00 +9°C° 0 mm 5 m/s 745 mmHg 80%
    13:00 +8°C° 0.2 mm 4 m/s 745 mmHg 82%
    14:00 +8°C° 0.2 mm 4 m/s 746 mmHg 85%
    15:00 +7°C° 0.2 mm 4 m/s 746 mmHg 87%
    16:00 +7°C° 0.2 mm 4 m/s 746 mmHg 89%
    17:00 +7°C° 0.2 mm 3 m/s 747 mmHg 90%
    18:00 +7°C° 0.2 mm 3 m/s 747 mmHg 92%
    19:00 +7°C° 0.1 mm 3 m/s 747 mmHg 92%
    20:00 +7°C° 0.1 mm 3 m/s 748 mmHg 93%
    21:00 +6°C° 0.1 mm 2 m/s 748 mmHg 93%
    22:00 +6°C° 0 mm 2 m/s 748 mmHg 93%
    23:00 +5°C° 0 mm 2 m/s 748 mmHg 94%
    Voir plus